Flight Track Log - Related Links

Times and Time Zones

All times are in EDT time to prevent confusion due to time zone crossing. See the EJA922 flight status page for this flight to view local times or setup timezone preferences in your user account.

Time Position Orientation Groundspeed Altitude Reporting Facility
EDT Latitude Longitude Course Direction KTS MPH feet Rate Location/Type
Mon 02:56:08 PM 45.7642 -111.1342 199° South 174 200 5,300  Level Salt Lake Center
Mon 02:57:10 PM 45.7219 -111.1631 206° Southwest 200 230 8,000 2,468 Climbing Salt Lake Center
Mon 02:58:12 PM 45.7056 -111.2450 254° West 217 250 10,400 2,177 Climbing Salt Lake Center
Mon 02:59:00 PM 45.6646 -111.6695 195° South  Level FlightAware Approximate
Mon 02:59:14 PM 45.6636 -111.3247 233° Southwest 274 315 12,500  Level Salt Lake Center
Mon 03:00:00 PM 45.5436 -111.7026 196° South  Level FlightAware Approximate
Mon 03:00:16 PM 45.5686 -111.3369 185° South 337 388 14,100  Level Salt Lake Center
Mon 03:01:00 PM 45.4251 -111.7542 199° South  Level FlightAware Approximate
Mon 03:01:18 PM 45.4633 -111.3497 185° South 369 425 16,000  Level Salt Lake Center
Mon 03:02:20 PM 45.3350 -111.3647 185° South 383 441 18,200 2,032 Climbing Salt Lake Center
Mon 03:03:22 PM 45.2264 -111.3786 185° South 390 449 20,200 1,920 Climbing Salt Lake Center
Mon 03:04:25 PM 45.1183 -111.3917 185° South 389 448 22,200 2,016 Climbing Salt Lake Center
Mon 03:05:27 PM 45.0014 -111.4061 185° South 394 453 24,400 1,935 Climbing Salt Lake Center
Mon 03:06:29 PM 44.8950 -111.4192 185° South 398 458 26,200 1,694 Climbing Salt Lake Center
Mon 03:07:31 PM 44.7675 -111.4353 185° South 409 471 27,900 1,403 Climbing Salt Lake Center
Mon 03:08:33 PM 44.6550 -111.4494 185° South 420 483 29,100 1,113 Climbing Salt Lake Center
Mon 03:09:35 PM 44.5172 -111.4678 185° South 470 541 30,200 1,065 Climbing Salt Lake Center
Mon 03:10:37 PM 44.3803 -111.4819 184° South 459 528 31,300 968 Climbing Salt Lake Center
Mon 03:11:39 PM 44.2542 -111.4975 185° South 472 543 32,200 1,016 Climbing Salt Lake Center
Mon 03:12:41 PM 44.1033 -111.5158 185° South 485 558 33,400 1,016 Climbing Salt Lake Center
Mon 03:13:43 PM 43.9697 -111.5317 185° South 498 573 34,300 968 Climbing Salt Lake Center
Mon 03:14:45 PM 43.8144 -111.5494 185° South 501 577 35,400 968 Climbing Salt Lake Center
Mon 03:15:47 PM 43.6819 -111.5658 185° South 500 575 36,300 774 Climbing Salt Lake Center
Mon 03:16:49 PM 43.5494 -111.5803 185° South 499 574 37,000 339 Climbing Salt Lake Center
Mon 03:17:51 PM 43.3911 -111.5978 185° South 509 586 37,000 194 Level Salt Lake Center
Mon 03:18:53 PM 43.2542 -111.6142 185° South 514 592 37,400 726 Climbing Salt Lake Center
Mon 03:19:55 PM 43.0986 -111.6322 185° South 504 580 38,500 968 Climbing Salt Lake Center
Mon 03:20:57 PM 42.9661 -111.6489 185° South 500 575 39,400 968 Climbing Salt Lake Center
Mon 03:21:59 PM 42.8139 -111.6664 185° South 493 567 40,500 774 Climbing Salt Lake Center
Mon 03:23:01 PM 42.6808 -111.6792 184° South 486 559 41,000 242 Climbing Salt Lake Center
Mon 03:24:03 PM 42.5442 -111.6956 185° South 493 567 41,000  Level Salt Lake Center
Mon 03:25:06 PM 42.4053 -111.7111 185° South 500 575 41,000  Level Salt Lake Center
Mon 03:26:08 PM 42.2381 -111.7283 184° South 502 578 41,000  Level Salt Lake Center
Mon 03:28:12 PM 41.9608 -111.7603 185° South 499 574 41,000  Level Salt Lake Center
Mon 03:29:14 PM 41.8217 -111.7742 184° South 502 578 41,000  Level Salt Lake Center
Mon 03:30:16 PM 41.6822 -111.7906 185° South 501 577 41,000  Level Salt Lake Center
Mon 03:31:18 PM 41.5431 -111.8058 185° South 503 579 41,000  Level Salt Lake Center
Mon 03:32:20 PM 41.3772 -111.8239 185° South 500 575 41,000  Level Salt Lake Center
Mon 03:33:22 PM 41.2386 -111.8392 185° South 500 575 41,000  Level Salt Lake Center
Mon 03:34:24 PM 41.0919 -111.8547 185° South 503 579 41,000  Level Salt Lake Center
Mon 03:35:26 PM 40.9722 -111.8681 185° South 502 578 41,000  Level Salt Lake Center
Mon 03:36:28 PM 40.8069 -111.8842 184° South 510 587 41,000  Level Salt Lake Center
Mon 03:37:30 PM 40.6664 -111.8981 184° South 511 588 41,000  Level Salt Lake Center
Mon 03:38:32 PM 40.5297 -111.9139 185° South 496 571 41,000  Level Salt Lake Center
Mon 03:39:34 PM 40.3925 -111.9289 185° South 497 572 41,000  Level Salt Lake Center
Mon 03:40:36 PM 40.2542 -111.9469 186° South 509 586 41,000  Level Salt Lake Center
Mon 03:41:38 PM 40.0878 -111.9697 186° South 499 574 41,000  Level Salt Lake Center
Mon 03:42:40 PM 39.9506 -111.9900 186° South 499 574 41,000  Level Salt Lake Center
Mon 03:43:42 PM 39.8142 -112.0083 186° South 494 568 41,000  Level Salt Lake Center
Mon 03:44:44 PM 39.6750 -112.0292 187° South 499 574 41,000  Level Salt Lake Center
Mon 03:45:47 PM 39.5367 -112.0492 186° South 501 577 41,000  Level Salt Lake Center
Mon 03:46:49 PM 39.3975 -112.0678 186° South 498 573 41,000  Level Salt Lake Center
Mon 03:47:51 PM 39.2319 -112.0928 187° South 498 573 41,000  Level Salt Lake Center
Mon 03:48:53 PM 39.0872 -112.1136 186° South 502 578 41,000  Level Salt Lake Center
Mon 03:49:55 PM 38.9478 -112.1317 186° South 503 579 41,000  Level Salt Lake Center
Mon 03:50:57 PM 38.8072 -112.1533 187° South 506 582 41,000  Level Salt Lake Center
Mon 03:51:59 PM 38.6681 -112.1836 190° South 507 583 41,000  Level Salt Lake Center
Mon 03:53:01 PM 38.5306 -112.2219 192° South 505 581 41,000  Level Salt Lake Center
Mon 03:54:03 PM 38.3939 -112.2611 193° South 502 578 41,000  Level Salt Lake Center
Mon 03:55:05 PM 38.2319 -112.3053 192° South 496 571 41,000  Level Salt Lake Center
Mon 03:56:07 PM 38.0969 -112.3403 192° South 493 567 41,000  Level Salt Lake Center
Mon 03:57:09 PM 37.9636 -112.3758 192° South 490 564 41,000  Level Salt Lake Center
Mon 03:58:11 PM 37.8300 -112.4103 192° South 488 562 41,000  Level Salt Lake Center
Mon 03:59:13 PM 37.6950 -112.4392 190° South 487 560 41,000  Level Salt Lake Center
Mon 03:59:50 PM 37.6119 -112.4403 181° South 476 548 41,000  Level Los Angeles Center
Mon 04:00:52 PM 37.4719 -112.4342 178° South 490 564 41,000  Level Los Angeles Center
Mon 04:01:54 PM 37.3364 -112.4164 174° South 486 559 41,000 -610 Level Los Angeles Center
Mon 04:03:59 PM 37.0381 -112.3697 173° South 489 563 39,100 -834 Descending Los Angeles Center
Mon 04:05:01 PM 36.9006 -112.3497 173° South 494 568 38,400 -774 Descending Los Angeles Center
Mon 04:06:03 PM 36.7614 -112.3581 183° South 496 571 37,500 -1,016 Descending Los Angeles Center
Mon 04:07:05 PM 36.6219 -112.3686 183° South 501 577 36,300 -1,694 Descending Los Angeles Center
Mon 04:08:07 PM 36.4858 -112.3758 182° South 492 566 34,000 -1,597 Descending Los Angeles Center
Mon 04:09:09 PM 36.3275 -112.3858 183° South 476 548 33,000 -480 Descending Los Angeles Center
Mon 04:10:12 PM 36.1889 -112.4022 185° South 499 574 33,000  Level Los Angeles Center
Mon 04:11:14 PM 36.0525 -112.4439 194° South 503 579 33,000  Level Los Angeles Center
Mon 04:12:16 PM 35.9219 -112.4822 193° South 506 582 33,000 -484 Level Los Angeles Center
Mon 04:13:18 PM 35.7861 -112.5244 194° South 506 582 32,000 -1,694 Descending Los Angeles Center
Mon 04:14:20 PM 35.6450 -112.5667 194° South 522 601 29,500 -1,452 Descending Los Angeles Center
Mon 04:15:22 PM 35.4833 -112.5225 167° South 499 574 29,000 -219 Descending Los Angeles Center
Mon 04:16:37 PM 35.3325 -112.4442 157° South 489 563 29,000 -219 Level Los Angeles Center
Mon 04:17:39 PM 35.2067 -112.3783 157° South 493 567 28,500 -774 Descending Los Angeles Center
Mon 04:18:41 PM 35.0778 -112.3114 157° South 505 581 27,400 -1,165 Descending Los Angeles Center
Mon 04:19:58 PM 34.8994 -112.2228 158° South 494 568 25,800 -1,295 Descending Albuquerque Center
Mon 04:21:00 PM 34.7769 -112.1592 157° South 484 557 24,400 -2,032 Descending Albuquerque Center
Mon 04:22:02 PM 34.6578 -112.0989 157° South 480 552 21,600 -2,878 Descending Albuquerque Center
Mon 04:23:03 PM 34.5397 -112.0381 157° South 467 537 18,500 -3,073 Descending Albuquerque Center
Mon 04:24:05 PM 34.4256 -111.9803 157° South 450 518 15,300 -2,952 Descending Albuquerque Center
Mon 04:25:07 PM 34.3183 -111.9256 157° South 429 494 12,400 -2,129 Descending Albuquerque Center
Mon 04:26:09 PM 34.1986 -111.9197 178° South 354 407 10,900 -878 Descending Albuquerque Center
Mon 04:27:10 PM 34.1194 -111.9258 184° South 295 339 10,600 -927 Descending Albuquerque Center
Mon 04:28:12 PM 34.0442 -111.9297 182° South 277 319 9,000 -1,645 Descending Albuquerque Center
Mon 04:29:14 PM 33.9700 -111.9347 183° South 273 314 7,200 -1,016 Descending Albuquerque Center
Mon 04:30:16 PM 33.8864 -111.9289 177° South 250 288 6,900 -390 Descending Albuquerque Center
Mon 04:31:17 PM 33.8222 -111.9114 167° South 240 276 6,400 -927 Descending Albuquerque Center
Mon 04:32:19 PM 33.7656 -111.8919 164° South 218 251 5,000 -1,258 Descending Albuquerque Center
Mon 04:33:21 PM 33.7133 -111.8753 165° South 197 227 3,800 -1,065 Descending Albuquerque Center
Mon 04:34:23 PM 33.6719 -111.8686 172° South 169 194 2,800 -968 Descending Albuquerque Center
Mon 04:35:25 PM 33.6392 -111.8914 210° Southwest 153 176 1,800 -968 Descending Albuquerque Center
Mon 04:37:00 PM 33.6229 -111.9105 180° South  Level Estimated

Login

Don't have an account? Register now (free) for customized features, flight alerts, and more!